Location: 22
(39.7117°N, 89.5929°W)
Time: 19:31:02
(UTC-05:00)

Vanguard 3 - Pass Details

Date: 02 February 2023
Orbit: 508 x 3249 km, 33.4° (Epoch: 30 March)

Event Time Altitude Azimuth Distance (km) Brightness Sun altitude
Rises 16:21:54 0° 188° (S) 3,599 11.1 9.1°
Reaches altitude 10° 16:25:23 10° 165° (SSE) 3,057 10.3 8.5°
Maximum altitude 16:29:43 16° 131° (SE) 3,134 10.0 7.8°
Drops below altitude 10° 16:35:20 10° 99° (E) 4,202 10.3 6.8°
Sets 16:41:37 0° 82° (E) 5,845 10.9 5.7°
